Time,TemperatureF,DewpointF,PressureIn,WindDirection,WindDirectionDegrees,WindSpeedMPH,WindSpeedGustMPH,Humidity,HourlyPrecipIn,Conditions,Clouds,dailyrainin,SoftwareType,DateUTC
2013-02-14 00:01:00,46.0,45.0,30.55,ENE,65,2.0,6.0,96,0.00,,,0.07,,2013-02-14 08:01:00,
2013-02-14 00:11:00,46.0,45.0,30.55,ENE,65,2.0,6.0,96,0.00,,,0.07,,2013-02-14 08:11:00,
2013-02-14 00:21:00,46.0,45.0,30.55,East,89,0.0,5.0,96,0.00,,,0.07,,2013-02-14 08:21:00,
2013-02-14 00:31:00,46.0,45.0,30.55,East,96,0.0,3.0,96,0.00,,,0.07,,2013-02-14 08:31:00,
2013-02-14 00:43:00,46.0,45.0,30.55,East,96,0.0,3.0,96,0.00,,,0.07,,2013-02-14 08:43:00,
2013-02-14 00:52:00,46.0,45.0,30.55,ESE,111,0.0,3.0,96,0.00,,,0.07,,2013-02-14 08:52:00,
2013-02-14 01:01:00,46.0,45.0,30.55,ESE,113,0.0,0.0,96,0.00,,,0.07,,2013-02-14 09:01:00,
2013-02-14 01:11:00,46.0,45.0,30.55,ESE,113,0.0,0.0,96,0.00,,,0.07,,2013-02-14 09:11:00,
2013-02-14 01:21:00,46.0,45.0,30.55,East,90,2.0,5.0,96,0.00,,,0.07,,2013-02-14 09:21:00,
2013-02-14 01:31:00,46.0,45.0,30.55,East,90,2.0,5.0,96,0.00,,,0.07,,2013-02-14 09:31:00,
2013-02-14 01:41:00,46.0,45.0,30.55,East,90,2.0,5.0,96,0.00,,,0.07,,2013-02-14 09:41:00,
2013-02-14 01:51:00,46.0,45.0,30.54,NE,51,4.0,7.0,96,0.00,,,0.05,,2013-02-14 09:51:00,
2013-02-14 02:02:00,45.0,44.0,30.54,East,96,5.0,8.0,96,0.00,,,0.05,,2013-02-14 10:02:00,
2013-02-14 02:11:00,45.0,44.0,30.54,East,83,4.0,9.0,96,0.00,,,0.05,,2013-02-14 10:11:00,
2013-02-14 02:21:00,45.0,44.0,30.54,East,83,4.0,9.0,96,0.00,,,0.05,,2013-02-14 10:21:00,
2013-02-14 02:31:00,45.0,44.0,30.55,NE,50,5.0,11.0,96,0.00,,,0.05,,2013-02-14 10:31:00,
2013-02-14 02:41:00,45.0,44.0,30.55,NE,50,5.0,11.0,96,0.00,,,0.05,,2013-02-14 10:41:00,
2013-02-14 02:52:00,45.0,44.0,30.55,NE,51,4.0,8.0,96,0.00,,,0.05,,2013-02-14 10:52:00,
2013-02-14 03:01:00,45.0,44.0,30.55,East,84,3.0,9.0,96,0.00,,,0.05,,2013-02-14 11:01:00,
2013-02-14 03:11:00,45.0,44.0,30.55,East,84,3.0,9.0,96,0.00,,,0.05,,2013-02-14 11:11:00,
2013-02-14 03:21:00,45.0,44.0,30.55,East,90,6.0,11.0,96,0.00,,,0.05,,2013-02-14 11:21:00,
2013-02-14 03:31:00,45.0,44.0,30.55,East,90,6.0,11.0,96,0.00,,,0.05,,2013-02-14 11:31:00,
2013-02-14 03:41:00,45.0,44.0,30.55,East,90,6.0,11.0,96,0.00,,,0.05,,2013-02-14 11:41:00,
2013-02-14 03:52:00,44.0,43.0,30.56,East,83,6.0,12.0,96,0.00,,,0.05,,2013-02-14 11:52:00,
2013-02-14 04:01:00,44.0,43.0,30.55,ENE,69,5.0,12.0,96,0.00,,,0.05,,2013-02-14 12:01:00,
2013-02-14 04:11:00,44.0,43.0,30.55,ENE,69,5.0,12.0,96,0.00,,,0.05,,2013-02-14 12:11:00,
2013-02-14 04:21:00,44.0,43.0,30.55,North,9,7.0,10.0,96,0.00,,,0.05,,2013-02-14 12:21:00,
2013-02-14 04:32:00,43.0,42.0,30.55,ENE,76,6.0,11.0,96,0.00,,,0.04,,2013-02-14 12:32:00,
2013-02-14 04:41:00,43.0,42.0,30.55,ENE,76,6.0,11.0,96,0.00,,,0.04,,2013-02-14 12:41:00,
2013-02-14 04:53:00,43.0,42.0,30.55,ENE,65,6.0,10.0,96,0.00,,,0.04,,2013-02-14 12:53:00,
2013-02-14 05:01:00,43.0,42.0,30.55,ENE,65,6.0,10.0,96,0.00,,,0.04,,2013-02-14 13:01:00,
2013-02-14 05:11:00,43.0,42.0,30.55,ENE,65,6.0,10.0,96,0.00,,,0.04,,2013-02-14 13:11:00,
2013-02-14 05:21:00,43.0,42.0,30.56,ESE,119,4.0,10.0,97,0.00,,,0.04,,2013-02-14 13:21:00,
2013-02-14 05:31:00,43.0,42.0,30.56,ENE,71,5.0,11.0,96,0.00,,,0.04,,2013-02-14 13:31:00,
2013-02-14 05:41:00,43.0,42.0,30.56,ENE,71,5.0,11.0,96,0.00,,,0.04,,2013-02-14 13:41:00,
2013-02-14 05:51:00,43.0,42.0,30.55,ENE,73,6.0,12.0,96,0.00,,,0.04,,2013-02-14 13:51:00,
2013-02-14 06:01:00,42.0,41.0,30.55,NE,45,5.0,11.0,97,0.00,,,0.04,,2013-02-14 14:01:00,
2013-02-14 06:11:00,42.0,41.0,30.55,NE,45,5.0,11.0,97,0.00,,,0.04,,2013-02-14 14:11:00,
2013-02-14 06:21:00,42.0,41.0,30.55,ENE,62,4.0,12.0,97,0.00,,,0.04,,2013-02-14 14:21:00,
2013-02-14 06:31:00,42.0,41.0,30.55,ENE,62,5.0,14.0,96,0.00,,,0.04,,2013-02-14 14:31:00,
2013-02-14 06:41:00,42.0,41.0,30.55,ENE,62,5.0,14.0,96,0.00,,,0.04,,2013-02-14 14:41:00,
2013-02-14 06:52:00,42.0,41.0,30.55,NNE,27,5.0,12.0,96,0.00,,,0.04,,2013-02-14 14:52:00,
2013-02-14 07:01:00,42.0,41.0,30.55,East,84,6.0,12.0,96,0.00,,,0.04,,2013-02-14 15:01:00,
2013-02-14 07:11:00,42.0,41.0,30.55,East,84,6.0,12.0,96,0.00,,,0.04,,2013-02-14 15:11:00,
2013-02-14 07:21:00,42.0,41.0,30.55,ENE,58,7.0,14.0,96,0.00,,,0.04,,2013-02-14 15:21:00,
2013-02-14 07:31:00,42.0,41.0,30.55,NE,46,7.0,13.0,96,0.00,,,0.03,,2013-02-14 15:31:00,
2013-02-14 07:41:00,42.0,41.0,30.55,NE,46,7.0,13.0,96,0.00,,,0.03,,2013-02-14 15:41:00,
2013-02-14 07:51:00,42.0,41.0,30.56,ENE,63,7.0,13.0,96,0.00,,,0.03,,2013-02-14 15:51:00,
2013-02-14 08:01:00,42.0,41.0,30.57,ENE,74,5.0,12.0,96,0.00,,,0.03,,2013-02-14 16:01:00,
2013-02-14 08:11:00,42.0,41.0,30.57,ENE,74,5.0,12.0,96,0.00,,,0.03,,2013-02-14 16:11:00,
2013-02-14 08:21:00,42.0,41.0,30.57,East,88,6.0,11.0,96,0.00,,,0.03,,2013-02-14 16:21:00,
2013-02-14 08:31:00,42.0,41.0,30.58,East,90,6.0,12.0,96,0.00,,,0.02,,2013-02-14 16:31:00,
2013-02-14 08:41:00,42.0,41.0,30.58,East,90,6.0,12.0,96,0.00,,,0.02,,2013-02-14 16:41:00,
2013-02-14 08:51:00,42.0,41.0,30.58,NE,49,5.0,12.0,96,0.00,,,0.02,,2013-02-14 16:51:00,
2013-02-14 09:01:00,43.0,42.0,30.58,East,81,5.0,9.0,95,0.00,,,0.02,,2013-02-14 17:01:00,
2013-02-14 09:11:00,43.0,42.0,30.58,East,81,5.0,9.0,95,0.00,,,0.02,,2013-02-14 17:11:00,
2013-02-14 09:21:00,44.0,43.0,30.58,NE,51,5.0,10.0,95,0.00,,,0.02,,2013-02-14 17:21:00,
2013-02-14 09:31:00,44.0,42.0,30.58,ESE,105,5.0,9.0,94,0.00,,,0.02,,2013-02-14 17:31:00,
2013-02-14 09:41:00,44.0,42.0,30.58,ESE,105,5.0,9.0,94,0.00,,,0.02,,2013-02-14 17:41:00,
2013-02-14 09:52:00,45.0,43.0,30.58,SE,133,5.0,11.0,94,0.00,,,0.02,,2013-02-14 17:52:00,
2013-02-14 10:01:00,46.0,44.0,30.58,SE,126,1.0,9.0,93,0.00,,,0.02,,2013-02-14 18:01:00,
2013-02-14 10:11:00,46.0,44.0,30.58,SE,126,1.0,9.0,93,0.00,,,0.02,,2013-02-14 18:11:00,
2013-02-14 10:22:00,47.0,45.0,30.58,ENE,61,3.0,8.0,92,0.00,,,0.02,,2013-02-14 18:22:00,
2013-02-14 10:31:00,48.0,45.0,30.58,East,84,2.0,8.0,91,0.00,,,0.01,,2013-02-14 18:31:00,
2013-02-14 10:41:00,48.0,45.0,30.58,East,84,2.0,8.0,91,0.00,,,0.01,,2013-02-14 18:41:00,
2013-02-14 10:52:00,50.0,47.0,30.59,ENE,76,2.0,7.0,90,0.00,,,0.01,,2013-02-14 18:52:00,
2013-02-14 11:01:00,51.0,48.0,30.58,ESE,111,1.0,7.0,88,0.00,,,0.01,,2013-02-14 19:01:00,
2013-02-14 11:11:00,51.0,48.0,30.58,ESE,111,1.0,7.0,88,0.00,,,0.01,,2013-02-14 19:11:00,
2013-02-14 11:21:00,51.0,47.0,30.58,SE,126,3.0,7.0,87,0.00,,,0.01,,2013-02-14 19:21:00,
2013-02-14 11:31:00,52.0,49.0,30.58,WNW,287,1.0,4.0,88,0.00,,,0.00,,2013-02-14 19:31:00,
2013-02-14 11:41:00,52.0,49.0,30.58,WNW,287,1.0,4.0,88,0.00,,,0.00,,2013-02-14 19:41:00,
2013-02-14 11:52:00,53.0,49.0,30.58,SSW,201,0.0,4.0,85,0.00,,,0.00,,2013-02-14 19:52:00,
2013-02-14 12:01:00,52.0,47.0,30.59,NW,319,3.0,7.0,83,0.00,,,0.00,,2013-02-14 20:01:00,
2013-02-14 12:11:00,53.0,48.0,30.58,West,269,1.0,6.0,83,0.00,,,0.00,,2013-02-14 20:11:00,
2013-02-14 12:21:00,53.0,48.0,30.58,West,269,1.0,6.0,83,0.00,,,0.00,,2013-02-14 20:21:00,
2013-02-14 12:31:00,53.0,48.0,30.58,WNW,286,3.0,7.0,82,0.00,,,0.00,,2013-02-14 20:31:00,
2013-02-14 12:41:00,53.0,48.0,30.58,WNW,286,3.0,7.0,82,0.00,,,0.00,,2013-02-14 20:41:00,
2013-02-14 12:52:00,54.0,49.0,30.57,NW,304,3.0,7.0,82,0.00,,,0.00,,2013-02-14 20:52:00,
2013-02-14 13:01:00,54.0,48.0,30.57,WNW,303,2.0,8.0,81,0.00,,,0.00,,2013-02-14 21:01:00,
2013-02-14 13:11:00,54.0,48.0,30.57,WNW,303,2.0,8.0,81,0.00,,,0.00,,2013-02-14 21:11:00,
2013-02-14 13:21:00,54.0,49.0,30.56,West,272,3.0,5.0,82,0.00,,,0.00,,2013-02-14 21:21:00,
2013-02-14 13:31:00,53.0,47.0,30.55,West,275,3.0,6.0,79,0.00,,,0.00,,2013-02-14 21:31:00,
2013-02-14 13:41:00,53.0,47.0,30.55,West,275,3.0,6.0,79,0.00,,,0.00,,2013-02-14 21:41:00,
2013-02-14 13:52:00,54.0,48.0,30.55,WNW,291,3.0,8.0,79,0.00,,,0.00,,2013-02-14 21:52:00,
2013-02-14 14:01:00,54.0,47.0,30.55,WNW,300,4.0,9.0,78,0.00,,,0.00,,2013-02-14 22:01:00,
2013-02-14 14:11:00,54.0,47.0,30.55,WNW,300,4.0,9.0,78,0.00,,,0.00,,2013-02-14 22:11:00,
2013-02-14 14:21:00,54.0,47.0,30.54,NW,318,3.0,8.0,78,0.00,,,0.00,,2013-02-14 22:21:00,
2013-02-14 14:31:00,54.0,47.0,30.54,West,261,3.0,9.0,77,0.00,,,0.00,,2013-02-14 22:31:00,
2013-02-14 14:41:00,54.0,47.0,30.54,West,261,3.0,9.0,77,0.00,,,0.00,,2013-02-14 22:41:00,
2013-02-14 14:52:00,54.0,48.0,30.53,WNW,284,3.0,8.0,79,0.00,,,0.00,,2013-02-14 22:52:00,
2013-02-14 15:01:00,54.0,48.0,30.53,NW,305,2.0,8.0,80,0.00,,,0.00,,2013-02-14 23:01:00,
2013-02-14 15:11:00,54.0,48.0,30.53,NW,305,2.0,8.0,80,0.00,,,0.00,,2013-02-14 23:11:00,
2013-02-14 15:21:00,54.0,48.0,30.53,WNW,286,3.0,7.0,80,0.00,,,0.00,,2013-02-14 23:21:00,
2013-02-14 15:31:00,53.0,48.0,30.53,West,275,3.0,8.0,82,0.00,,,0.00,,2013-02-14 23:31:00,
2013-02-14 15:41:00,53.0,48.0,30.53,West,275,3.0,8.0,82,0.00,,,0.00,,2013-02-14 23:41:00,
2013-02-14 15:52:00,54.0,49.0,30.52,NW,313,2.0,7.0,83,0.00,,,0.00,,2013-02-14 23:52:00,
2013-02-14 16:01:00,54.0,49.0,30.52,WNW,296,4.0,7.0,82,0.00,,,0.00,,2013-02-15 00:01:00,
2013-02-14 16:11:00,54.0,49.0,30.52,WNW,296,4.0,7.0,82,0.00,,,0.00,,2013-02-15 00:11:00,
2013-02-14 16:21:00,52.0,47.0,30.52,NW,307,3.0,8.0,84,0.00,,,0.00,,2013-02-15 00:21:00,
2013-02-14 16:31:00,52.0,48.0,30.52,West,277,3.0,8.0,85,0.00,,,0.00,,2013-02-15 00:31:00,
2013-02-14 16:41:00,52.0,48.0,30.52,West,277,3.0,8.0,85,0.00,,,0.00,,2013-02-15 00:41:00,
2013-02-14 16:52:00,52.0,48.0,30.52,NE,42,3.0,8.0,85,0.00,,,0.00,,2013-02-15 00:52:00,
2013-02-14 17:01:00,52.0,48.0,30.51,East,86,1.0,6.0,86,0.00,,,0.00,,2013-02-15 01:01:00,
2013-02-14 17:11:00,52.0,48.0,30.51,East,86,1.0,6.0,86,0.00,,,0.00,,2013-02-15 01:11:00,
2013-02-14 17:21:00,52.0,48.0,30.51,West,272,1.0,6.0,86,0.00,,,0.00,,2013-02-15 01:21:00,
2013-02-14 17:31:00,52.0,48.0,30.51,West,272,1.0,6.0,86,0.00,,,0.00,,2013-02-15 01:31:00,
2013-02-14 17:41:00,52.0,48.0,30.51,West,272,1.0,6.0,86,0.00,,,0.00,,2013-02-15 01:41:00,
2013-02-14 17:51:00,51.0,48.0,30.51,SE,146,0.0,3.0,88,0.00,,,0.00,,2013-02-15 01:51:00,
2013-02-14 18:01:00,50.0,47.0,30.51,SSW,195,0.0,0.0,89,0.00,,,0.00,,2013-02-15 02:01:00,
2013-02-14 18:11:00,50.0,47.0,30.51,SSW,195,0.0,0.0,89,0.00,,,0.00,,2013-02-15 02:11:00,
2013-02-14 18:21:00,49.0,46.0,30.51,SSW,195,0.0,0.0,90,0.00,,,0.00,,2013-02-15 02:21:00,
2013-02-14 18:31:00,49.0,46.0,30.51,SSW,195,0.0,0.0,91,0.00,,,0.00,,2013-02-15 02:31:00,
2013-02-14 18:41:00,49.0,46.0,30.51,SSW,195,0.0,0.0,91,0.00,,,0.00,,2013-02-15 02:41:00,
2013-02-14 18:52:00,48.0,46.0,30.50,SE,124,0.0,0.0,92,0.00,,,0.00,,2013-02-15 02:52:00,
2013-02-14 19:01:00,48.0,46.0,30.50,NE,55,0.0,2.0,92,0.00,,,0.00,,2013-02-15 03:01:00,
2013-02-14 19:11:00,48.0,46.0,30.50,NE,55,0.0,2.0,92,0.00,,,0.00,,2013-02-15 03:11:00,
2013-02-14 19:21:00,48.0,46.0,30.50,East,83,0.0,2.0,92,0.00,,,0.00,,2013-02-15 03:21:00,
2013-02-14 19:31:00,48.0,46.0,30.50,ENE,63,1.0,6.0,93,0.00,,,0.00,,2013-02-15 03:31:00,
2013-02-14 19:41:00,48.0,46.0,30.50,ENE,63,1.0,6.0,93,0.00,,,0.00,,2013-02-15 03:41:00,
2013-02-14 19:52:00,48.0,46.0,30.50,ENE,70,2.0,5.0,93,0.00,,,0.00,,2013-02-15 03:52:00,
2013-02-14 20:01:00,49.0,47.0,30.50,East,89,3.0,7.0,93,0.00,,,0.00,,2013-02-15 04:01:00,
2013-02-14 20:11:00,49.0,47.0,30.50,East,89,3.0,7.0,93,0.00,,,0.00,,2013-02-15 04:11:00,
2013-02-14 20:21:00,49.0,47.0,30.50,East,80,3.0,6.0,93,0.00,,,0.00,,2013-02-15 04:21:00,
2013-02-14 20:31:00,49.0,47.0,30.50,ENE,78,5.0,9.0,93,0.00,,,0.00,,2013-02-15 04:31:00,
2013-02-14 20:41:00,49.0,47.0,30.50,ENE,78,5.0,9.0,93,0.00,,,0.00,,2013-02-15 04:41:00,
2013-02-14 20:52:00,48.0,46.0,30.50,ENE,65,4.0,11.0,94,0.00,,,0.00,,2013-02-15 04:52:00,
2013-02-14 21:01:00,48.0,46.0,30.49,ENE,66,4.0,10.0,93,0.00,,,0.00,,2013-02-15 05:01:00,
2013-02-14 21:11:00,48.0,46.0,30.49,ENE,66,4.0,10.0,93,0.00,,,0.00,,2013-02-15 05:11:00,
2013-02-14 21:22:00,48.0,46.0,30.49,East,86,5.0,12.0,94,0.00,,,0.00,,2013-02-15 05:22:00,
2013-02-14 21:32:00,47.0,45.0,30.49,East,101,5.0,10.0,94,0.00,,,0.00,,2013-02-15 05:32:00,
2013-02-14 21:41:00,47.0,45.0,30.49,East,101,5.0,10.0,94,0.00,,,0.00,,2013-02-15 05:41:00,
2013-02-14 21:52:00,47.0,45.0,30.49,NNE,18,9.0,13.0,94,0.00,,,0.00,,2013-02-15 05:52:00,
2013-02-14 22:01:00,48.0,46.0,30.48,NE,46,4.0,12.0,94,0.00,,,0.00,,2013-02-15 06:01:00,
2013-02-14 22:11:00,48.0,46.0,30.48,NE,46,4.0,12.0,94,0.00,,,0.00,,2013-02-15 06:11:00,
2013-02-14 22:21:00,48.0,46.0,30.48,ENE,57,5.0,12.0,94,0.00,,,0.00,,2013-02-15 06:21:00,
2013-02-14 22:31:00,48.0,46.0,30.48,NNW,346,4.0,11.0,94,0.00,,,0.00,,2013-02-15 06:31:00,
2013-02-14 22:42:00,48.0,46.0,30.48,NNW,346,4.0,11.0,94,0.00,,,0.00,,2013-02-15 06:42:00,
2013-02-14 22:52:00,48.0,46.0,30.47,NNE,25,5.0,10.0,94,0.00,,,0.00,,2013-02-15 06:52:00,
2013-02-14 23:01:00,47.0,45.0,30.47,NNE,33,5.0,11.0,93,0.00,,,0.00,,2013-02-15 07:01:00,
2013-02-14 23:11:00,47.0,45.0,30.47,NNE,33,5.0,11.0,93,0.00,,,0.00,,2013-02-15 07:11:00,
2013-02-14 23:21:00,47.0,45.0,30.47,East,90,6.0,11.0,93,0.00,,,0.00,,2013-02-15 07:21:00,
2013-02-14 23:31:00,47.0,45.0,30.47,East,90,6.0,11.0,93,0.00,,,0.00,,2013-02-15 07:31:00,
2013-02-14 23:41:00,47.0,45.0,30.47,East,90,6.0,11.0,93,0.00,,,0.00,,2013-02-15 07:41:00,
2013-02-14 23:52:00,48.0,46.0,30.46,NNE,15,5.0,11.0,93,0.00,,,0.00,,2013-02-15 07:52:00,